BST420 TNCM-SCIP

Flight info

Callsign BST420
Flight time N/A
Altitude 36000
Route BOPAT2 DANDE M576 MILOK UM576 PJG UL325 ALCOT UG431 ENPUT UW1 CUC UW26 MRN/N0497F380 UW26 RNG/N0500F370 UP778 BOKAN UP533 BIVAN/N0497F380 UM662 GYV/N0500F370 UM659 URA/N0497F380 DCT 09S084W 12S088W 15S092W 18S096W/N0487F400 21S100W 24S105W DCT EROPI EROPI2A
Aircraft B789/H-SDE1E2E3FGHIJ2J3J4J5M1RWXY/LB1D1

Departure

Time 2026-05-04 06:17
Airport Princess Juliana International Airport (TNCM)

Arrival

Time N/A
Airport Mataveri International Airport (SCIP)
Time Latitude Longitude Altitude Speed Heading
2026-05-04 05:31 18.04321 -63.11361 26 ft 0 kts 352°
2026-05-04 06:07 18.04301 -63.11357 45 ft 4 kts 345°
2026-05-04 06:07 18.04275 -63.11350 28 ft 4 kts 352°
2026-05-04 06:07 18.04256 -63.11351 32 ft 3 kts 27°
2026-05-04 06:08 18.04241 -63.11365 32 ft 4 kts 70°
2026-05-04 06:08 18.04235 -63.11391 32 ft 3 kts 82°
2026-05-04 06:08 18.04235 -63.11396 32 ft 0 kts 82°
2026-05-04 06:11 18.04237 -63.11381 30 ft 5 kts 83°
2026-05-04 06:11 18.04228 -63.11333 30 ft 6 kts 122°
2026-05-04 06:13 18.04099 -63.10855 30 ft 18 kts 81°
2026-05-04 06:14 18.04208 -63.10088 26 ft 16 kts 81°
2026-05-04 06:14 18.04226 -63.09981 25 ft 12 kts 73°
2026-05-04 06:15 18.04256 -63.09927 29 ft 7 kts 52°
2026-05-04 06:15 18.04281 -63.09887 28 ft 5 kts 70°
2026-05-04 06:15 18.04279 -63.09867 27 ft 3 kts 106°
2026-05-04 06:15 18.04269 -63.09856 30 ft 3 kts 146°
2026-05-04 06:16 18.04256 -63.09856 27 ft 2 kts 197°
2026-05-04 06:16 18.04241 -63.09879 30 ft 5 kts 248°
2026-05-04 06:16 18.04236 -63.09902 28 ft 0 kts 260°
2026-05-04 06:16 18.04231 -63.09932 28 ft 24 kts 261°
2026-05-04 06:17 18.04168 -63.10376 29 ft 98 kts 262°
2026-05-04 06:17 18.04031 -63.11327 29 ft 164 kts 261°
2026-05-04 06:17 18.03833 -63.12653 227 ft 195 kts 255°
2026-05-04 06:17 18.03533 -63.13986 1309 ft 178 kts 244°
2026-05-04 06:18 18.02667 -63.14949 1757 ft 191 kts 194°
2026-05-04 06:18 18.01352 -63.15303 2254 ft 205 kts 186°
2026-05-04 06:18 17.99899 -63.15619 2799 ft 222 kts 191°
2026-05-04 06:20 17.89994 -63.24855 8737 ft 293 kts 224°
2026-05-04 06:20 17.88548 -63.26392 9653 ft 296 kts 224°
2026-05-04 06:21 17.81956 -63.33337 11136 ft 384 kts 224°
2026-05-04 06:21 17.80170 -63.35219 11949 ft 385 kts 224°
2026-05-04 06:22 17.78997 -63.36455 12382 ft 390 kts 224°
2026-05-04 06:22 17.78251 -63.37240 12637 ft 393 kts 224°
2026-05-04 06:25 17.51834 -63.64983 21200 ft 438 kts 225°
2026-05-04 06:25 17.49658 -63.67261 21686 ft 443 kts 225°
2026-05-04 06:26 17.47437 -63.69533 22165 ft 447 kts 224°
2026-05-04 06:26 17.45178 -63.71798 22623 ft 452 kts 224°
2026-05-04 06:26 17.42910 -63.74098 23109 ft 455 kts 224°
2026-05-04 06:26 17.40660 -63.76405 23525 ft 460 kts 224°
2026-05-04 06:27 17.31360 -63.85859 25150 ft 470 kts 224°
2026-05-04 06:28 17.29038 -63.88221 25535 ft 472 kts 224°
2026-05-04 06:28 17.26681 -63.90612 25970 ft 472 kts 224°
2026-05-04 06:28 17.24310 -63.93018 26332 ft 475 kts 224°
2026-05-04 06:28 17.21932 -63.95432 26702 ft 477 kts 225°
2026-05-04 06:29 17.19545 -63.97853 27062 ft 480 kts 224°
2026-05-04 06:29 17.17135 -64.00297 27417 ft 482 kts 225°
2026-05-04 06:29 17.14745 -64.02719 27777 ft 484 kts 225°
2026-05-04 06:29 17.12315 -64.05179 28092 ft 487 kts 224°
2026-05-04 06:30 17.09878 -64.07645 28493 ft 488 kts 225°
2026-05-04 06:30 17.07432 -64.10119 28768 ft 491 kts 224°
2026-05-04 06:30 17.04968 -64.12611 29133 ft 492 kts 225°
2026-05-04 06:30 17.02500 -64.15106 29393 ft 495 kts 224°
2026-05-04 06:31 17.00050 -64.17581 29757 ft 496 kts 225°
2026-05-04 06:31 16.97549 -64.20108 29980 ft 499 kts 225°
2026-05-04 06:31 16.95048 -64.22634 30294 ft 500 kts 225°
2026-05-04 06:31 16.92538 -64.25166 30478 ft 502 kts 225°
2026-05-04 06:32 16.90051 -64.27676 30801 ft 502 kts 225°
2026-05-04 06:33 16.72426 -64.45431 32773 ft 501 kts 225°
2026-05-04 06:34 16.69921 -64.47950 33167 ft 498 kts 225°
2026-05-04 06:34 16.67425 -64.50459 33439 ft 498 kts 226°
2026-05-04 06:34 16.64921 -64.52976 33764 ft 497 kts 225°
2026-05-04 06:34 16.62432 -64.55476 34043 ft 497 kts 226°
2026-05-04 06:35 16.59947 -64.57973 34300 ft 496 kts 226°
2026-05-04 06:36 16.43373 -64.74593 35735 ft 497 kts 226°
2026-05-04 06:37 16.40877 -64.77092 35949 ft 497 kts 226°
2026-05-04 06:37 16.38377 -64.79595 36015 ft 501 kts 226°
2026-05-04 06:37 16.33354 -64.84619 36013 ft 498 kts 226°
2026-05-04 06:38 16.28364 -64.89608 36011 ft 496 kts 226°
2026-05-04 06:40 16.08457 -65.09464 36008 ft 494 kts 226°
2026-05-04 06:40 16.03519 -65.14380 36006 ft 495 kts 226°
2026-05-04 06:41 15.98523 -65.19350 36009 ft 496 kts 226°
2026-05-04 06:41 15.93522 -65.24321 36011 ft 497 kts 226°
2026-05-04 06:42 15.88538 -65.29271 36015 ft 497 kts 226°
2026-05-04 06:44 15.68636 -65.49004 36010 ft 496 kts 226°
2026-05-04 06:44 15.63639 -65.53974 36015 ft 497 kts 226°
2026-05-04 06:45 15.58667 -65.58917 36011 ft 497 kts 226°
2026-05-04 06:45 15.53677 -65.63870 36005 ft 494 kts 226°
2026-05-04 06:46 15.48728 -65.68784 36000 ft 494 kts 226°
2026-05-04 06:46 15.46238 -65.71253 36190 ft 494 kts 226°
2026-05-04 06:46 15.43744 -65.73725 36418 ft 494 kts 226°
2026-05-04 06:48 15.26303 -65.90967 37732 ft 497 kts 226°
2026-05-04 06:48 15.23773 -65.93400 37895 ft 497 kts 226°
2026-05-04 06:49 15.21240 -65.95847 38001 ft 499 kts 226°
2026-05-04 06:50 15.03613 -66.12952 37990 ft 495 kts 225°
2026-05-04 06:51 14.98460 -66.17726 37990 ft 495 kts 225°
2026-05-04 06:51 14.93399 -66.22489 37990 ft 495 kts 225°
2026-05-04 06:52 14.88279 -66.27274 37989 ft 495 kts 225°
2026-05-04 06:52 14.83151 -66.32071 37992 ft 497 kts 225°
2026-05-04 06:53 14.78049 -66.36841 38000 ft 498 kts 225°
2026-05-04 06:53 14.72887 -66.41660 38004 ft 498 kts 225°
2026-05-04 06:54 14.67751 -66.46457 38002 ft 497 kts 225°
2026-05-04 06:54 14.62621 -66.51241 37991 ft 496 kts 225°
2026-05-04 06:55 14.57536 -66.55982 37984 ft 495 kts 225°
2026-05-04 06:55 14.52405 -66.60762 37981 ft 496 kts 225°
2026-05-04 06:57 14.32609 -66.80639 37997 ft 498 kts 228°
2026-05-04 06:58 14.27760 -66.85679 37994 ft 496 kts 228°
2026-05-04 06:58 14.22894 -66.90745 37986 ft 494 kts 229°
2026-05-04 06:59 14.18058 -66.95773 37977 ft 493 kts 229°
2026-05-04 06:59 14.13256 -67.00764 37977 ft 494 kts 229°
2026-05-04 07:01 13.93878 -67.20867 37980 ft 494 kts 228°
2026-05-04 07:02 13.89043 -67.25876 37976 ft 492 kts 228°
2026-05-04 07:02 13.84252 -67.30835 37975 ft 491 kts 228°
2026-05-04 07:03 13.79418 -67.35837 37968 ft 494 kts 228°
2026-05-04 07:03 13.74566 -67.40853 37976 ft 496 kts 228°
2026-05-04 07:04 13.69681 -67.45901 37984 ft 497 kts 227°
2026-05-04 07:04 13.64828 -67.50912 37987 ft 497 kts 228°
2026-05-04 07:05 13.59985 -67.55986 37980 ft 496 kts 228°
2026-05-04 07:05 13.55125 -67.61054 37979 ft 497 kts 228°
2026-05-04 07:06 13.47871 -67.68624 37979 ft 496 kts 228°
2026-05-04 07:07 13.43025 -67.73670 37974 ft 495 kts 228°
2026-05-04 07:09 13.23603 -67.93747 37972 ft 496 kts 227°
2026-05-04 07:09 13.18775 -67.98823 37972 ft 496 kts 228°
2026-05-04 07:10 13.13908 -68.03870 37976 ft 496 kts 228°
2026-05-04 07:12 12.94539 -68.24005 37967 ft 496 kts 227°
2026-05-04 07:12 12.89686 -68.29039 37968 ft 496 kts 227°
2026-05-04 07:13 12.84858 -68.34049 37970 ft 497 kts 227°
2026-05-04 07:13 12.79990 -68.39092 37973 ft 497 kts 227°
2026-05-04 07:14 12.67824 -68.51657 37973 ft 497 kts 227°
2026-05-04 07:15 12.62941 -68.56694 37972 ft 497 kts 228°
2026-05-04 07:15 12.58092 -68.61698 37975 ft 497 kts 227°
2026-05-04 07:16 12.53205 -68.66733 37973 ft 498 kts 227°
2026-05-04 07:16 12.48310 -68.71777 37977 ft 498 kts 227°
2026-05-04 07:17 12.43444 -68.76787 37979 ft 498 kts 227°
2026-05-04 07:17 12.38550 -68.81822 37974 ft 498 kts 227°
2026-05-04 07:18 12.33655 -68.86858 37971 ft 498 kts 227°
2026-05-04 07:18 12.28800 -68.91847 37973 ft 497 kts 226°
2026-05-04 07:19 12.23920 -68.96861 37972 ft 496 kts 226°
2026-05-04 07:19 12.18999 -69.01818 37976 ft 496 kts 220°
2026-05-04 07:20 12.13755 -69.06363 37970 ft 498 kts 222°
2026-05-04 07:20 12.08476 -69.10963 37973 ft 498 kts 221°
2026-05-04 07:22 11.87423 -69.29254 37958 ft 494 kts 222°
2026-05-04 07:23 11.82206 -69.33788 37956 ft 494 kts 222°
2026-05-04 07:23 11.76951 -69.38347 37956 ft 494 kts 222°
2026-05-04 07:24 11.71728 -69.42880 37958 ft 495 kts 223°
2026-05-04 07:24 11.66469 -69.47440 37960 ft 495 kts 222°
2026-05-04 07:26 11.46490 -69.64745 37959 ft 491 kts 221°
2026-05-04 07:27 11.41309 -69.69229 37960 ft 491 kts 223°
2026-05-04 07:27 11.36265 -69.73933 37957 ft 491 kts 223°
2026-05-04 07:28 11.31196 -69.78615 37969 ft 491 kts 224°
2026-05-04 07:28 11.26155 -69.83330 37955 ft 491 kts 224°
2026-05-04 07:29 11.21135 -69.87982 37952 ft 490 kts 224°
2026-05-04 07:29 11.16104 -69.92668 37963 ft 490 kts 224°
2026-05-04 07:30 11.11047 -69.97360 37956 ft 490 kts 224°
2026-05-04 07:30 11.06010 -70.02040 37961 ft 490 kts 224°
2026-05-04 07:31 11.01003 -70.06711 37954 ft 490 kts 224°